Find Local Weather

World > North America > United States > New York

Colden, New York Regional Weather

Lat: 42.64N, Lon: 78.69W
Wx Zone: NYZ085
Warning FLW WEATHER ALERT - (More Info. Click Here) Warning
Feedback
Expires:201808151300;;097901
ASUS41 KALY 151210
RWRALY

NEW YORK STATE HOURLY WEATHER ROUNDUP
NATIONAL WEATHER SERVICE ALBANY NY
800 AM EDT WED AUG 15 2018

NOTE: "FAIR" INDICATES FEW OR NO CLOUDS BELOW 12,000 FEET WITH NO
SIGNIFICANT WEATHER AND/OR NO OBSTRUCTIONS TO VISIBILITY.


NYZ001>004-010>016-019>021-085-151300-
WEST

  
CITY           SKY/WX    TMP DP  RH WIND       PRES   REMARKS
NIAGARA FALLS  FAIR      73  69  87 SW12      29.92S                  
BUFFALO        FAIR      73  70  90 SW10      29.94R                  
DUNKIRK        FAIR      72  67  84 SW8       29.97R                  
JAMESTOWN      FAIR      64  63  96 S3        30.03S                  
WELLSVILLE     FAIR      67  64  90 W9        30.04R                  
ROCHESTER      PTSUNNY   70  69  97 SW8       29.92R                  
PENN YAN       FAIR      70  64  81 SW10      29.95R                  
$$

             KEY
       WCI = WIND CHILL INDEX
       VSB = VISIBILITY
       HX  = HEAT INDEX
$$
  

SKY/WX - Weather  TMP - Temperature  DP - Dewpoint  RH - Relative Humidity
WIND - Wind Direction/Speed PRES - Barometric Pressure